User: anonymous   Login
Location: Newark
(43.6583°N, 1.6617°E)
Time: 21:09:25
(UTC+00:00)
Language:

Altair - Orbit

View from above orbital plane
View from above orbital plane
View from above satellite
View from above satellite

Ground track
Ground track

The orbit data is extracted from the following two-line orbital elements,

1    50U 60009B   19236.33930148 -.00000109  00000-0 -22033-3 0  9997
2    50  47.2330 326.5151 0113975 157.5140 203.0699 12.20109528634279
Epoch (UTC): 24 August 2019 08:08:35
Eccentricity: 0.0113975
inclination: 47.2330°
perigee height: 1501 km
apogee height: 1683 km
right ascension of ascending node: 326.5151°
argument of perigee: 157.5140°
revolutions per day: 12.20109528
mean anomaly at epoch: 203.0699°
orbit number at epoch: 63427

The dashed part of the orbit path shows where the satellite is in the earth's shadow,  

DLR